| time (UTC) | temp C | wind direction | speed KPH | gust KPH | rain 1hr cm | rain 24hr cm | rain mn cm | humidity % | barometer mb |
| 20260906164250 | 36 | 73 | 6.4 | 8.0 | 0.00 | 0.00 | 0.00 | 50 | 1016.3 |
| 20260906163746 | 35 | 94 | 4.8 | 4.8 | 0.00 | 0.00 | 0.00 | 50 | 1016.3 |
| 20260906163242 | 35 | 151 | 0.0 | 0.0 | 0.00 | 0.00 | 0.00 | 51 | 1016.2 |
| 20260906162739 | 35 | 70 | 4.8 | 4.8 | 0.00 | 0.00 | 0.00 | 52 | 1016.3 |
| 20260906162234 | 34 | 74 | 6.4 | 8.0 | 0.00 | 0.00 | 0.00 | 54 | 1016.6 |
| 20260906161733 | 35 | 140 | 1.6 | 3.2 | 0.00 | 0.00 | 0.00 | 51 | 1016.5 |
| 20260906161233 | 35 | 110 | 4.8 | 4.8 | 0.00 | 0.00 | 0.00 | 51 | 1016.5 |
| 20260906160732 | 35 | 144 | 1.6 | 4.8 | 0.00 | 0.00 | 0.00 | 53 | 1016.3 |
| 20260906160226 | 35 | 66 | 4.8 | 4.8 | 0.00 | 0.00 | 0.00 | 52 | 1016.6 |
| 20260906155723 | 35 | 16 | 4.8 | 4.8 | 0.00 | 0.00 | 0.00 | 54 | 1016.8 |
| 20260906155218 | 35 | 104 | 1.6 | 1.6 | 0.00 | 0.00 | 0.00 | 51 | 1016.6 |
| 20260906154714 | 35 | 97 | 3.2 | 3.2 | 0.00 | 0.00 | 0.00 | 51 | 1016.3 |
| 20260906154209 | 35 | 105 | 1.6 | 3.2 | 0.00 | 0.00 | 0.00 | 52 | 1016.7 |
| 20260906153707 | 34 | 163 | 1.6 | 3.2 | 0.00 | 0.00 | 0.00 | 51 | 1016.7 |
| 20260906153202 | 34 | 92 | 3.2 | 3.2 | 0.00 | 0.00 | 0.00 | 51 | 1016.6 |
| 20260906152657 | 33 | 338 | 3.2 | 4.8 | 0.00 | 0.00 | 0.00 | 52 | 1016.8 |
| 20260906152157 | 33 | 120 | 1.6 | 1.6 | 0.00 | 0.00 | 0.00 | 53 | 1016.5 |
| 20260906151651 | 33 | 108 | 1.6 | 1.6 | 0.00 | 0.00 | 0.00 | 54 | 1016.6 |
| 20260906151148 | 33 | 145 | 3.2 | 3.2 | 0.00 | 0.00 | 0.00 | 57 | 1016.6 |
| 20260906150643 | 33 | 149 | 1.6 | 1.6 | 0.00 | 0.00 | 0.00 | 57 | 1016.3 |
| 20260906150138 | 34 | 101 | 3.2 | 3.2 | 0.00 | 0.00 | 0.00 | 56 | 1016.6 |
| 20260906145637 | 33 | 109 | 0.0 | 0.0 | 0.00 | 0.00 | 0.00 | 59 | 1016.1 |
| 20260906145132 | 32 | 127 | 1.6 | 3.2 | 0.00 | 0.00 | 0.00 | 60 | 1016.3 |
| 20260906144631 | 32 | 169 | 1.6 | 3.2 | 0.00 | 0.00 | 0.00 | 61 | 1016.2 |
| 20260906144127 | 32 | 145 | 0.0 | 1.6 | 0.00 | 0.00 | 0.00 | 61 | 1016.2 |
| 20260906143626 | 32 | 147 | 0.0 | 0.0 | 0.00 | 0.00 | 0.00 | 62 | 1016.6 |
| 20260906143124 | 32 | 105 | 1.6 | 1.6 | 0.00 | 0.00 | 0.00 | 63 | 1016.2 |
| 20260906142622 | 31 | 127 | 1.6 | 1.6 | 0.00 | 0.00 | 0.00 | 63 | 1016.3 |
| 20260906142118 | 31 | 124 | 0.0 | 1.6 | 0.00 | 0.00 | 0.00 | 66 | 1016.5 |
| 20260906141617 | 30 | 125 | 1.6 | 1.6 | 0.00 | 0.00 | 0.00 | 66 | 1016.5 |
| 20260906141112 | 30 | 116 | 1.6 | 3.2 | 0.00 | 0.00 | 0.00 | 67 | 1016.5 |
| 20260906140611 | 30 | 88 | 3.2 | 3.2 | 0.00 | 0.00 | 0.00 | 66 | 1016.5 |
| 20260906140106 | 30 | 119 | 0.0 | 1.6 | 0.00 | 0.00 | 0.00 | 65 | 1016.5 |
| 20260906135603 | 30 | 122 | 1.6 | 1.6 | 0.00 | 0.00 | 0.00 | 67 | 1016.3 |
| 20260906135059 | 29 | 137 | 0.0 | 0.0 | 0.00 | 0.00 | 0.00 | 72 | 1016.3 |
| 20260906134554 | 28 | 129 | 0.0 | 0.0 | 0.00 | 0.00 | 0.00 | 73 | 1016.2 |
| 20260906134055 | 28 | 136 | 0.0 | 1.6 | 0.00 | 0.00 | 0.00 | 74 | 1016.2 |
| 20260906133550 | 28 | 138 | 1.6 | 3.2 | 0.00 | 0.00 | 0.00 | 73 | 1016.3 |
| 20260906133045 | 29 | 113 | 1.6 | 3.2 | 0.00 | 0.00 | 0.00 | 72 | 1016.2 |
| 20260906132540 | 28 | 118 | 0.0 | 0.0 | 0.00 | 0.00 | 0.00 | 74 | 1016.3 |
| 20260906132036 | 28 | 139 | 0.0 | 0.0 | 0.00 | 0.00 | 0.00 | 77 | 1015.9 |
| 20260906131531 | 27 | 143 | 0.0 | 0.0 | 0.00 | 0.00 | 0.00 | 79 | 1016.2 |
| 20260906131026 | 27 | 142 | 0.0 | 0.0 | 0.00 | 0.00 | 0.00 | 82 | 1016.0 |
| 20260906130526 | 26 | 140 | 0.0 | 0.0 | 0.00 | 0.00 | 0.00 | 86 | 1016.2 |
| 20260906130021 | 25 | 140 | 0.0 | 0.0 | 0.00 | 0.00 | 0.00 | 89 | 1016.0 |
| 20260906125518 | 25 | 139 | 0.0 | 0.0 | 0.00 | 0.00 | 0.00 | 90 | 1016.0 |
| 20260906125013 | 23 | 136 | 0.0 | 0.0 | 0.00 | 0.00 | 0.00 | 91 | 1015.5 |
| 20260906124509 | 23 | 146 | 0.0 | 0.0 | 0.00 | 0.00 | 0.00 | 90 | 1015.7 |
| 20260906124004 | 23 | 145 | 0.0 | 0.0 | 0.00 | 0.00 | 0.00 | 91 | 1015.5 |
| 20260906123502 | 22 | 141 | 0.0 | 0.0 | 0.00 | 0.00 | 0.00 | 93 | 1015.8 |
| 20260906122956 | 22 | 139 | 0.0 | 0.0 | 0.00 | 0.00 | 0.00 | 94 | 1015.4 |
| 20260906122451 | 22 | 138 | 0.0 | 0.0 | 0.00 | 0.00 | 0.00 | 95 | 1015.2 |
| 20260906121948 | 21 | 138 | 0.0 | 0.0 | 0.00 | 0.00 | 0.00 | 96 | 1015.5 |
| 20260906121444 | 21 | 141 | 0.0 | 0.0 | 0.00 | 0.00 | 0.00 | 96 | 1015.6 |
| 20260906120940 | 21 | 136 | 0.0 | 0.0 | 0.00 | 0.00 | 0.00 | 95 | 1015.3 |
| 20260906120435 | 21 | 139 | 0.0 | 0.0 | 0.00 | 0.00 | 0.00 | 95 | 1015.4 |
| 20260906115931 | 21 | 134 | 0.0 | 0.0 | 0.00 | 0.00 | 0.00 | 95 | 1015.4 |
| 20260906115427 | 21 | 142 | 0.0 | 0.0 | 0.00 | 0.00 | 0.00 | 95 | 1015.1 |
| 20260906114926 | 21 | 139 | 0.0 | 0.0 | 0.00 | 0.00 | 0.00 | 95 | 1014.8 |
| 20260906114421 | 21 | 138 | 1.6 | 1.6 | 0.00 | 0.00 | 0.00 | 95 | 1015.1 |
| 20260906113917 | 21 | 141 | 0.0 | 1.6 | 0.00 | 0.00 | 0.00 | 95 | 1015.2 |
| 20260906113415 | 21 | 147 | 1.6 | 1.6 | 0.00 | 0.00 | 0.00 | 95 | 1015.3 |
| 20260906112911 | 21 | 122 | 1.6 | 1.6 | 0.00 | 0.00 | 0.00 | 95 | 1015.0 |
| 20260906112407 | 21 | 134 | 0.0 | 0.0 | 0.00 | 0.00 | 0.00 | 95 | 1015.1 |
| 20260906111902 | 21 | 145 | 0.0 | 1.6 | 0.00 | 0.00 | 0.00 | 95 | 1014.9 |
| 20260906111401 | 21 | 133 | 3.2 | 3.2 | 0.00 | 0.00 | 0.00 | 95 | 1014.8 |
| 20260906110856 | 21 | 134 | 1.6 | 1.6 | 0.00 | 0.00 | 0.00 | 95 | 1015.0 |
| 20260906110352 | 21 | 129 | 1.6 | 1.6 | 0.00 | 0.00 | 0.00 | 95 | 1014.7 |
| 20260906105850 | 21 | 128 | 0.0 | 1.6 | 0.00 | 0.00 | 0.00 | 94 | 1014.9 |
| 20260906105347 | 21 | 139 | 0.0 | 0.0 | 0.00 | 0.00 | 0.00 | 94 | 1014.9 |
| 20260906104842 | 21 | 142 | 0.0 | 0.0 | 0.00 | 0.00 | 0.00 | 93 | 1015.0 |
| 20260906104341 | 21 | 141 | 0.0 | 0.0 | 0.00 | 0.00 | 0.00 | 93 | 1014.9 |
| 20260906103839 | 21 | 139 | 0.0 | 0.0 | 0.00 | 0.00 | 0.00 | 93 | 1014.9 |
| 20260906103338 | 21 | 141 | 0.0 | 0.0 | 0.00 | 0.00 | 0.00 | 93 | 1014.9 |
| 20260906102834 | 21 | 138 | 0.0 | 0.0 | 0.00 | 0.00 | 0.00 | 93 | 1014.9 |
| 20260906102333 | 21 | 139 | 0.0 | 0.0 | 0.00 | 0.00 | 0.00 | 93 | 1014.7 |
| 20260906101828 | 21 | 139 | 0.0 | 0.0 | 0.00 | 0.00 | 0.00 | 92 | 1014.8 |
| 20260906101323 | 21 | 139 | 0.0 | 0.0 | 0.00 | 0.00 | 0.00 | 92 | 1014.8 |
| 20260906100819 | 21 | 134 | 0.0 | 0.0 | 0.00 | 0.00 | 0.00 | 92 | 1014.9 |
| 20260906100318 | 21 | 139 | 0.0 | 0.0 | 0.00 | 0.00 | 0.00 | 92 | 1014.7 |
| 20260906095813 | 21 | 142 | 0.0 | 0.0 | 0.00 | 0.00 | 0.00 | 92 | 1014.8 |
| 20260906095309 | 21 | 141 | 0.0 | 0.0 | 0.00 | 0.00 | 0.00 | 92 | 1014.8 |
| 20260906094808 | 21 | 134 | 0.0 | 0.0 | 0.00 | 0.00 | 0.00 | 92 | 1014.7 |
| 20260906094303 | 21 | 140 | 0.0 | 0.0 | 0.00 | 0.00 | 0.00 | 92 | 1014.7 |
| 20260906093759 | 21 | 141 | 0.0 | 0.0 | 0.00 | 0.00 | 0.00 | 92 | 1014.8 |
| 20260906093255 | 21 | 145 | 0.0 | 0.0 | 0.00 | 0.00 | 0.00 | 91 | 1014.6 |
| 20260906092749 | 21 | 141 | 0.0 | 0.0 | 0.00 | 0.00 | 0.00 | 91 | 1014.8 |
| 20260906092244 | 21 | 132 | 0.0 | 0.0 | 0.00 | 0.00 | 0.00 | 91 | 1014.6 |
| 20260906091739 | 21 | 147 | 0.0 | 0.0 | 0.00 | 0.00 | 0.00 | 91 | 1014.8 |
| 20260906091236 | 21 | 142 | 0.0 | 0.0 | 0.00 | 0.00 | 0.00 | 90 | 1014.9 |
| 20260906090732 | 22 | 147 | 0.0 | 0.0 | 0.00 | 0.00 | 0.00 | 90 | 1014.6 |
| 20260906090231 | 22 | 149 | 0.0 | 0.0 | 0.00 | 0.00 | 0.00 | 89 | 1014.7 |
| 20260906085731 | 22 | 148 | 0.0 | 0.0 | 0.00 | 0.00 | 0.00 | 89 | 1014.5 |
| 20260906085230 | 22 | 137 | 0.0 | 0.0 | 0.00 | 0.00 | 0.00 | 89 | 1014.5 |
| 20260906084725 | 22 | 139 | 0.0 | 0.0 | 0.00 | 0.00 | 0.00 | 88 | 1014.4 |
| 20260906084224 | 22 | 121 | 1.6 | 1.6 | 0.00 | 0.00 | 0.00 | 88 | 1014.4 |
| 20260906083719 | 22 | 137 | 0.0 | 0.0 | 0.00 | 0.00 | 0.00 | 87 | 1014.3 |
| 20260906083215 | 22 | 132 | 0.0 | 0.0 | 0.00 | 0.00 | 0.00 | 87 | 1014.3 |
| 20260906082710 | 22 | 147 | 0.0 | 0.0 | 0.00 | 0.00 | 0.00 | 87 | 1014.3 |
| 20260906082205 | 22 | 137 | 0.0 | 0.0 | 0.00 | 0.00 | 0.00 | 87 | 1014.5 |
| 20260906081701 | 22 | 137 | 0.0 | 0.0 | 0.00 | 0.00 | 0.00 | 87 | 1014.5 |
| 20260906081156 | 22 | 112 | 1.6 | 1.6 | 0.00 | 0.00 | 0.00 | 86 | 1014.5 |
| 20260906080653 | 22 | 134 | 0.0 | 0.0 | 0.00 | 0.00 | 0.00 | 86 | 1014.6 |
| 20260906080148 | 22 | 137 | 1.6 | 1.6 | 0.00 | 0.00 | 0.00 | 86 | 1014.6 |
| 20260906075648 | 23 | 145 | 1.6 | 1.6 | 0.00 | 0.00 | 0.00 | 85 | 1014.1 |
| 20260906075142 | 23 | 141 | 0.0 | 0.0 | 0.00 | 0.00 | 0.00 | 84 | 1014.5 |
| 20260906074638 | 23 | 131 | 0.0 | 1.6 | 0.00 | 0.00 | 0.00 | 83 | 1014.4 |
| 20260906074137 | 23 | 141 | 0.0 | 0.0 | 0.00 | 0.00 | 0.00 | 82 | 1014.4 |
| 20260906073632 | 23 | 137 | 0.0 | 0.0 | 0.00 | 0.00 | 0.00 | 82 | 1014.3 |
| 20260906073128 | 23 | 138 | 0.0 | 0.0 | 0.00 | 0.00 | 0.00 | 82 | 1014.4 |
| 20260906072622 | 23 | 132 | 0.0 | 0.0 | 0.00 | 0.00 | 0.00 | 82 | 1014.4 |
| 20260906072118 | 24 | 139 | 0.0 | 0.0 | 0.00 | 0.00 | 0.00 | 81 | 1014.3 |
| 20260906071615 | 24 | 138 | 0.0 | 0.0 | 0.00 | 0.00 | 0.00 | 80 | 1014.5 |
| 20260906071109 | 24 | 132 | 0.0 | 0.0 | 0.00 | 0.00 | 0.00 | 79 | 1014.5 |
| 20260906070606 | 25 | 139 | 0.0 | 0.0 | 0.00 | 0.00 | 0.00 | 79 | 1014.5 |
| 20260906070101 | 25 | 128 | 1.6 | 1.6 | 0.00 | 0.00 | 0.00 | 79 | 1014.4 |
| 20260906065600 | 25 | 138 | 1.6 | 1.6 | 0.00 | 0.00 | 0.00 | 79 | 1014.5 |
| 20260906065056 | 25 | 142 | 1.6 | 3.2 | 0.00 | 0.00 | 0.00 | 78 | 1014.7 |
| 20260906064551 | 25 | 115 | 3.2 | 3.2 | 0.00 | 0.00 | 0.00 | 78 | 1014.7 |
| 20260906064040 | 25 | 111 | 1.6 | 1.6 | 0.00 | 0.00 | 0.00 | 79 | 1014.7 |
| 20260906063536 | 25 | 108 | 3.2 | 3.2 | 0.00 | 0.00 | 0.00 | 80 | 1014.7 |
| 20260906063032 | 25 | 123 | 1.6 | 3.2 | 0.00 | 0.00 | 0.00 | 80 | 1014.7 |
| 20260906062527 | 25 | 143 | 1.6 | 3.2 | 0.00 | 0.00 | 0.00 | 79 | 1014.7 |
| 20260906062021 | 25 | 139 | 1.6 | 1.6 | 0.00 | 0.00 | 0.00 | 79 | 1014.7 |
| 20260906061517 | 25 | 140 | 1.6 | 1.6 | 0.00 | 0.00 | 0.00 | 78 | 1015.0 |
| 20260906061016 | 25 | 153 | 1.6 | 1.6 | 0.00 | 0.00 | 0.00 | 76 | 1014.6 |
| 20260906060513 | 25 | 113 | 1.6 | 1.6 | 0.00 | 0.00 | 0.00 | 76 | 1014.6 |
| 20260906060010 | 25 | 119 | 1.6 | 1.6 | 0.00 | 0.00 | 0.00 | 76 | 1014.6 |
| 20260906055505 | 25 | 110 | 3.2 | 3.2 | 0.00 | 0.00 | 0.00 | 77 | 1014.4 |
| 20260906055000 | 25 | 100 | 1.6 | 3.2 | 0.00 | 0.00 | 0.00 | 77 | 1014.9 |
| 20260906054455 | 25 | 141 | 0.0 | 0.0 | 0.00 | 0.00 | 0.00 | 77 | 1014.9 |
| 20260906053950 | 25 | 140 | 1.6 | 1.6 | 0.00 | 0.00 | 0.00 | 78 | 1015.0 |
| 20260906053447 | 25 | 114 | 1.6 | 1.6 | 0.00 | 0.00 | 0.00 | 77 | 1014.6 |
| 20260906052942 | 25 | 143 | 0.0 | 0.0 | 0.00 | 0.00 | 0.00 | 77 | 1014.6 |
| 20260906052438 | 25 | 137 | 1.6 | 1.6 | 0.00 | 0.00 | 0.00 | 77 | 1014.6 |
| 20260906051935 | 25 | 133 | 1.6 | 1.6 | 0.00 | 0.00 | 0.00 | 76 | 1014.8 |
| 20260906051430 | 25 | 126 | 1.6 | 1.6 | 0.00 | 0.00 | 0.00 | 77 | 1014.6 |
| 20260906050926 | 25 | 117 | 0.0 | 1.6 | 0.00 | 0.00 | 0.00 | 77 | 1014.3 |
| 20260906050425 | 25 | 109 | 3.2 | 3.2 | 0.00 | 0.00 | 0.00 | 77 | 1014.4 |
| 20260906045925 | 25 | 123 | 1.6 | 3.2 | 0.00 | 0.00 | 0.00 | 77 | 1014.7 |
| 20260906045423 | 25 | 112 | 1.6 | 1.6 | 0.00 | 0.00 | 0.00 | 77 | 1014.7 |
| 20260906044920 | 25 | 108 | 3.2 | 3.2 | 0.00 | 0.00 | 0.00 | 77 | 1014.5 |
| 20260906044420 | 25 | 134 | 1.6 | 1.6 | 0.00 | 0.00 | 0.00 | 78 | 1014.4 |
| 20260906043915 | 25 | 138 | 0.0 | 0.0 | 0.00 | 0.00 | 0.00 | 78 | 1014.6 |
| 20260906043411 | 25 | 140 | 0.0 | 0.0 | 0.00 | 0.00 | 0.00 | 78 | 1014.7 |
| 20260906042907 | 25 | 104 | 1.6 | 3.2 | 0.00 | 0.00 | 0.00 | 78 | 1014.7 |
| 20260906042406 | 25 | 140 | 0.0 | 0.0 | 0.00 | 0.00 | 0.00 | 78 | 1014.4 |
| 20260906041901 | 25 | 121 | 1.6 | 1.6 | 0.00 | 0.00 | 0.00 | 78 | 1014.5 |
| 20260906041357 | 25 | 129 | 0.0 | 0.0 | 0.00 | 0.00 | 0.00 | 78 | 1014.5 |
| 20260906040857 | 25 | 139 | 0.0 | 0.0 | 0.00 | 0.00 | 0.00 | 77 | 1014.4 |
| 20260906040352 | 25 | 115 | 1.6 | 1.6 | 0.00 | 0.00 | 0.00 | 77 | 1014.7 |
| 20260906035847 | 25 | 124 | 1.6 | 1.6 | 0.00 | 0.00 | 0.00 | 77 | 1014.6 |
| 20260906035343 | 25 | 132 | 0.0 | 0.0 | 0.00 | 0.00 | 0.00 | 76 | 1014.6 |
| 20260906034838 | 25 | 137 | 1.6 | 1.6 | 0.00 | 0.00 | 0.00 | 75 | 1014.4 |
| 20260906034333 | 26 | 140 | 0.0 | 0.0 | 0.00 | 0.00 | 0.00 | 74 | 1014.5 |
| 20260906033829 | 26 | 139 | 0.0 | 0.0 | 0.00 | 0.00 | 0.00 | 74 | 1014.4 |
| 20260906033328 | 26 | 128 | 1.6 | 1.6 | 0.00 | 0.00 | 0.00 | 73 | 1014.4 |
| 20260906032824 | 26 | 119 | 1.6 | 1.6 | 0.00 | 0.00 | 0.00 | 72 | 1014.6 |
| 20260906032320 | 26 | 132 | 0.0 | 1.6 | 0.00 | 0.00 | 0.00 | 72 | 1014.6 |
| 20260906031815 | 26 | 119 | 1.6 | 1.6 | 0.00 | 0.00 | 0.00 | 72 | 1014.4 |
| 20260906031311 | 26 | 131 | 1.6 | 1.6 | 0.00 | 0.00 | 0.00 | 72 | 1014.4 |
| 20260906030810 | 26 | 126 | 1.6 | 1.6 | 0.00 | 0.00 | 0.00 | 72 | 1014.6 |
| 20260906030305 | 26 | 124 | 3.2 | 3.2 | 0.00 | 0.00 | 0.00 | 72 | 1014.5 |
| 20260906025805 | 26 | 135 | 1.6 | 1.6 | 0.00 | 0.00 | 0.00 | 73 | 1014.6 |
| 20260906025259 | 26 | 138 | 0.0 | 1.6 | 0.00 | 0.00 | 0.00 | 73 | 1014.3 |
| 20260906024758 | 26 | 135 | 0.0 | 0.0 | 0.00 | 0.00 | 0.00 | 73 | 1014.5 |
| 20260906024257 | 26 | 127 | 0.0 | 0.0 | 0.00 | 0.00 | 0.00 | 72 | 1014.4 |
| 20260906023753 | 26 | 120 | 1.6 | 1.6 | 0.00 | 0.00 | 0.00 | 72 | 1014.3 |
| 20260906023248 | 27 | 136 | 0.0 | 0.0 | 0.00 | 0.00 | 0.00 | 72 | 1014.2 |
| 20260906022744 | 27 | 131 | 1.6 | 3.2 | 0.00 | 0.00 | 0.00 | 71 | 1014.1 |
| 20260906022239 | 27 | 115 | 1.6 | 1.6 | 0.00 | 0.00 | 0.00 | 71 | 1014.1 |
| 20260906021735 | 27 | 137 | 0.0 | 1.6 | 0.00 | 0.00 | 0.00 | 70 | 1014.2 |
| 20260906021234 | 27 | 127 | 1.6 | 1.6 | 0.00 | 0.00 | 0.00 | 69 | 1014.0 |
| 20260906020729 | 28 | 128 | 1.6 | 1.6 | 0.00 | 0.00 | 0.00 | 67 | 1013.7 |
| 20260906020223 | 28 | 129 | 1.6 | 3.2 | 0.00 | 0.00 | 0.00 | 67 | 1013.9 |
| 20260906015723 | 28 | 135 | 1.6 | 1.6 | 0.00 | 0.00 | 0.00 | 67 | 1013.5 |
| 20260906015222 | 28 | 124 | 1.6 | 1.6 | 0.00 | 0.00 | 0.00 | 67 | 1013.6 |
| 20260906014716 | 28 | 122 | 3.2 | 3.2 | 0.00 | 0.00 | 0.00 | 67 | 1013.4 |
| 20260906014212 | 28 | 131 | 0.0 | 0.0 | 0.00 | 0.00 | 0.00 | 67 | 1013.3 |
| 20260906013703 | 28 | 139 | 0.0 | 0.0 | 0.00 | 0.00 | 0.00 | 68 | 1013.3 |
| 20260906013203 | 28 | 132 | 1.6 | 1.6 | 0.00 | 0.00 | 0.00 | 69 | 1013.4 |
| 20260906012658 | 28 | 125 | 0.0 | 0.0 | 0.00 | 0.00 | 0.00 | 69 | 1013.3 |
| 20260906012157 | 28 | 125 | 0.0 | 0.0 | 0.00 | 0.00 | 0.00 | 69 | 1013.3 |
| 20260906011654 | 28 | 131 | 0.0 | 0.0 | 0.00 | 0.00 | 0.00 | 67 | 1013.4 |
| 20260906011148 | 28 | 139 | 0.0 | 0.0 | 0.00 | 0.00 | 0.00 | 68 | 1013.2 |
| 20260906010643 | 29 | 135 | 0.0 | 0.0 | 0.00 | 0.00 | 0.00 | 68 | 1013.2 |
| 20260906010140 | 30 | 133 | 0.0 | 0.0 | 0.00 | 0.00 | 0.00 | 67 | 1013.2 |
| 20260906005639 | 30 | 141 | 0.0 | 0.0 | 0.00 | 0.00 | 0.00 | 65 | 1013.5 |
| 20260906005138 | 30 | 140 | 0.0 | 0.0 | 0.00 | 0.00 | 0.00 | 65 | 1013.0 |
| 20260906004637 | 30 | 137 | 0.0 | 0.0 | 0.00 | 0.00 | 0.00 | 63 | 1013.3 |
| 20260906004133 | 31 | 134 | 1.6 | 1.6 | 0.00 | 0.00 | 0.00 | 62 | 1013.0 |
| 20260906003628 | 31 | 136 | 0.0 | 0.0 | 0.00 | 0.00 | 0.00 | 62 | 1013.2 |
| 20260906003124 | 31 | 127 | 1.6 | 1.6 | 0.00 | 0.00 | 0.00 | 63 | 1013.3 |
| 20260906002618 | 31 | 94 | 0.0 | 1.6 | 0.00 | 0.00 | 0.00 | 63 | 1013.1 |
| 20260906002108 | 32 | 125 | 1.6 | 1.6 | 0.00 | 0.00 | 0.00 | 62 | 1013.0 |
| 20260906001603 | 32 | 133 | 0.0 | 0.0 | 0.00 | 0.00 | 0.00 | 60 | 1012.7 |
| 20260906001103 | 33 | 132 | 0.0 | 0.0 | 0.00 | 0.00 | 0.00 | 57 | 1012.8 |
| 20260906000559 | 35 | 143 | 0.0 | 0.0 | 0.00 | 0.00 | 0.00 | 54 | 1012.9 |
| 20260906000054 | 35 | 138 | 0.0 | 0.0 | 0.00 | 0.00 | 0.00 | 52 | 1013.0 |
| 20260905235553 | 36 | 145 | 0.0 | 0.0 | 0.00 | 0.00 | 0.00 | 51 | 1013.1 |
| 20260905235048 | 37 | 133 | 0.0 | 0.0 | 0.00 | 0.00 | 0.00 | 49 | 1012.9 |
| 20260905234543 | 37 | 143 | 0.0 | 0.0 | 0.00 | 0.00 | 0.00 | 46 | 1013.0 |
| 20260905234038 | 37 | 143 | 0.0 | 0.0 | 0.00 | 0.00 | 0.00 | 47 | 1013.0 |
| 20260905233532 | 38 | 134 | 0.0 | 1.6 | 0.00 | 0.00 | 0.00 | 45 | 1013.0 |
| 20260905233032 | 38 | 146 | 0.0 | 0.0 | 0.00 | 0.00 | 0.00 | 45 | 1013.0 |
| 20260905232528 | 38 | 133 | 0.0 | 1.6 | 0.00 | 0.00 | 0.00 | 44 | 1013.0 |
| 20260905232024 | 38 | 154 | 0.0 | 0.0 | 0.00 | 0.00 | 0.00 | 40 | 1013.1 |
| 20260905231519 | 38 | 152 | 0.0 | 1.6 | 0.00 | 0.00 | 0.00 | 42 | 1013.0 |
| 20260905231015 | 38 | 135 | 0.0 | 1.6 | 0.00 | 0.00 | 0.00 | 41 | 1013.1 |
| 20260905230514 | 38 | 114 | 3.2 | 3.2 | 0.00 | 0.00 | 0.00 | 40 | 1012.9 |
| 20260905230013 | 38 | 147 | 1.6 | 1.6 | 0.00 | 0.00 | 0.00 | 40 | 1012.8 |
| 20260905225507 | 38 | 175 | 1.6 | 1.6 | 0.00 | 0.00 | 0.00 | 40 | 1013.0 |
| 20260905225003 | 38 | 112 | 3.2 | 3.2 | 0.00 | 0.00 | 0.00 | 39 | 1012.9 |
| 20260905224458 | 38 | 37 | 4.8 | 4.8 | 0.00 | 0.00 | 0.00 | 39 | 1012.6 |
| 20260905223956 | 38 | 201 | 1.6 | 3.2 | 0.00 | 0.00 | 0.00 | 40 | 1012.6 |
| 20260905223454 | 38 | 113 | 1.6 | 1.6 | 0.00 | 0.00 | 0.00 | 40 | 1012.8 |
| 20260905222949 | 37 | 203 | 3.2 | 3.2 | 0.00 | 0.00 | 0.00 | 40 | 1012.7 |
| 20260905222443 | 37 | 143 | 1.6 | 1.6 | 0.00 | 0.00 | 0.00 | 40 | 1012.7 |
| 20260905221939 | 38 | 101 | 3.2 | 3.2 | 0.00 | 0.00 | 0.00 | 41 | 1012.8 |
| 20260905221436 | 38 | 276 | 3.2 | 3.2 | 0.00 | 0.00 | 0.00 | 39 | 1013.0 |
| 20260905220932 | 38 | 104 | 1.6 | 3.2 | 0.00 | 0.00 | 0.00 | 39 | 1012.9 |
| 20260905220428 | 39 | 136 | 1.6 | 3.2 | 0.00 | 0.00 | 0.00 | 37 | 1013.2 |
| 20260905215927 | 39 | 146 | 3.2 | 3.2 | 0.00 | 0.00 | 0.00 | 36 | 1012.9 |
| 20260905215422 | 38 | 137 | 1.6 | 1.6 | 0.00 | 0.00 | 0.00 | 38 | 1013.2 |
| 20260905214919 | 38 | 135 | 1.6 | 3.2 | 0.00 | 0.00 | 0.00 | 38 | 1013.0 |
| 20260905214414 | 38 | 89 | 3.2 | 4.8 | 0.00 | 0.00 | 0.00 | 38 | 1013.1 |
| 20260905213914 | 38 | 133 | 4.8 | 9.7 | 0.00 | 0.00 | 0.00 | 39 | 1013.1 |
| 20260905213410 | 38 | 150 | 1.6 | 1.6 | 0.00 | 0.00 | 0.00 | 37 | 1013.2 |
| 20260905212905 | 38 | 130 | 1.6 | 3.2 | 0.00 | 0.00 | 0.00 | 38 | 1013.0 |
| 20260905212400 | 38 | 174 | 1.6 | 1.6 | 0.00 | 0.00 | 0.00 | 40 | 1013.2 |
| 20260905211859 | 37 | 195 | 3.2 | 3.2 | 0.00 | 0.00 | 0.00 | 40 | 1013.3 |
| 20260905211355 | 38 | 124 | 6.4 | 8.0 | 0.00 | 0.00 | 0.00 | 39 | 1013.5 |
| 20260905210851 | 38 | 197 | 0.0 | 1.6 | 0.00 | 0.00 | 0.00 | 38 | 1013.4 |
| 20260905210351 | 38 | 164 | 3.2 | 3.2 | 0.00 | 0.00 | 0.00 | 39 | 1013.9 |
| 20260905205850 | 38 | 153 | 0.0 | 1.6 | 0.00 | 0.00 | 0.00 | 41 | 1013.9 |
| 20260905205345 | 38 | 147 | 1.6 | 1.6 | 0.00 | 0.00 | 0.00 | 40 | 1013.7 |
| 20260905204844 | 38 | 139 | 1.6 | 3.2 | 0.00 | 0.00 | 0.00 | 40 | 1013.6 |
| 20260905204341 | 38 | 79 | 4.8 | 8.0 | 0.00 | 0.00 | 0.00 | 39 | 1013.9 |
| 20260905203839 | 38 | 168 | 3.2 | 3.2 | 0.00 | 0.00 | 0.00 | 40 | 1014.1 |
| 20260905203335 | 39 | 79 | 3.2 | 4.8 | 0.00 | 0.00 | 0.00 | 39 | 1014.0 |
| 20260905202831 | 39 | 63 | 3.2 | 3.2 | 0.00 | 0.00 | 0.00 | 38 | 1014.1 |
| 20260905202325 | 38 | 119 | 1.6 | 1.6 | 0.00 | 0.00 | 0.00 | 39 | 1014.1 |
| 20260905201821 | 38 | 158 | 0.0 | 0.0 | 0.00 | 0.00 | 0.00 | 41 | 1014.3 |
| 20260905201316 | 38 | 165 | 1.6 | 3.2 | 0.00 | 0.00 | 0.00 | 41 | 1014.3 |
| 20260905200811 | 38 | 79 | 6.4 | 8.0 | 0.00 | 0.00 | 0.00 | 40 | 1014.4 |
| 20260905200307 | 38 | 102 | 4.8 | 8.0 | 0.00 | 0.00 | 0.00 | 39 | 1014.5 |
| 20260905195804 | 38 | 138 | 3.2 | 4.8 | 0.00 | 0.00 | 0.00 | 40 | 1014.5 |
| 20260905195300 | 38 | 102 | 3.2 | 3.2 | 0.00 | 0.00 | 0.00 | 41 | 1014.5 |
| 20260905194755 | 37 | 166 | 1.6 | 1.6 | 0.00 | 0.00 | 0.00 | 43 | 1014.9 |
| 20260905194255 | 37 | 139 | 3.2 | 3.2 | 0.00 | 0.00 | 0.00 | 42 | 1014.6 |
| 20260905193754 | 37 | 158 | 1.6 | 1.6 | 0.00 | 0.00 | 0.00 | 44 | 1014.6 |
| 20260905193249 | 37 | 116 | 1.6 | 3.2 | 0.00 | 0.00 | 0.00 | 42 | 1015.0 |
| 20260905192744 | 37 | 119 | 4.8 | 4.8 | 0.00 | 0.00 | 0.00 | 44 | 1014.8 |
| 20260905192241 | 35 | 159 | 0.0 | 0.0 | 0.00 | 0.00 | 0.00 | 46 | 1015.0 |
| 20260905191740 | 35 | 158 | 1.6 | 1.6 | 0.00 | 0.00 | 0.00 | 48 | 1015.1 |
| 20260905191238 | 36 | 110 | 3.2 | 3.2 | 0.00 | 0.00 | 0.00 | 47 | 1015.1 |
| 20260905190737 | 36 | 137 | 3.2 | 3.2 | 0.00 | 0.00 | 0.00 | 47 | 1015.2 |
| 20260905190236 | 37 | 97 | 4.8 | 8.0 | 0.00 | 0.00 | 0.00 | 45 | 1015.2 |
| 20260905185735 | 37 | 85 | 4.8 | 4.8 | 0.00 | 0.00 | 0.00 | 45 | 1015.2 |
| 20260905185230 | 37 | 197 | 3.2 | 3.2 | 0.00 | 0.00 | 0.00 | 45 | 1015.4 |
| 20260905184725 | 37 | 166 | 1.6 | 1.6 | 0.00 | 0.00 | 0.00 | 44 | 1015.6 |
| 20260905184224 | 37 | 210 | 4.8 | 4.8 | 0.00 | 0.00 | 0.00 | 44 | 1015.6 |
| 20260905183723 | 37 | 356 | 4.8 | 8.0 | 0.00 | 0.00 | 0.00 | 43 | 1015.7 |
| 20260905183219 | 36 | 80 | 1.6 | 3.2 | 0.00 | 0.00 | 0.00 | 46 | 1015.7 |
| 20260905182713 | 36 | 124 | 1.6 | 1.6 | 0.00 | 0.00 | 0.00 | 46 | 1015.6 |
| 20260905182213 | 37 | 212 | 4.8 | 4.8 | 0.00 | 0.00 | 0.00 | 43 | 1015.9 |
| 20260905181708 | 36 | 162 | 0.0 | 0.0 | 0.00 | 0.00 | 0.00 | 44 | 1016.0 |
| 20260905181207 | 36 | 310 | 4.8 | 8.0 | 0.00 | 0.00 | 0.00 | 44 | 1015.9 |
| 20260905180701 | 36 | 120 | 3.2 | 4.8 | 0.00 | 0.00 | 0.00 | 44 | 1016.1 |
| 20260905180157 | 36 | 155 | 3.2 | 3.2 | 0.00 | 0.00 | 0.00 | 46 | 1016.2 |
| 20260905175656 | 36 | 111 | 1.6 | 3.2 | 0.00 | 0.00 | 0.00 | 45 | 1016.0 |
| 20260905175151 | 36 | 192 | 3.2 | 3.2 | 0.00 | 0.00 | 0.00 | 46 | 1016.2 |
| 20260905174647 | 36 | 142 | 1.6 | 1.6 | 0.00 | 0.00 | 0.00 | 49 | 1016.1 |
| 20260905174142 | 35 | 104 | 4.8 | 8.0 | 0.00 | 0.00 | 0.00 | 48 | 1016.1 |
| 20260905173638 | 36 | 82 | 12.9 | 14.5 | 0.00 | 0.00 | 0.00 | 47 | 1016.3 |
| 20260905173134 | 36 | 102 | 3.2 | 4.8 | 0.00 | 0.00 | 0.00 | 48 | 1016.3 |
| 20260905172632 | 36 | 344 | 8.0 | 11.3 | 0.00 | 0.00 | 0.00 | 48 | 1016.2 |
| 20260905172128 | 36 | 150 | 1.6 | 1.6 | 0.00 | 0.00 | 0.00 | 49 | 1016.3 |
| 20260905171624 | 35 | 146 | 1.6 | 1.6 | 0.00 | 0.00 | 0.00 | 50 | 1016.6 |
| 20260905171120 | 35 | 227 | 1.6 | 1.6 | 0.00 | 0.00 | 0.00 | 50 | 1016.8 |
| 20260905170616 | 35 | 65 | 1.6 | 3.2 | 0.00 | 0.00 | 0.00 | 51 | 1016.7 |
| 20260905170111 | 35 | 114 | 1.6 | 1.6 | 0.00 | 0.00 | 0.00 | 52 | 1016.9 |
| 20260905165605 | 35 | 86 | 3.2 | 4.8 | 0.00 | 0.00 | 0.00 | 52 | 1016.9 |
| 20260905165101 | 35 | 168 | 6.4 | 9.7 | 0.00 | 0.00 | 0.00 | 50 | 1017.0 |